Date String (YYYY-MM-DD hh:mm:ss) UTC,Instrument flags,absolute air pressure of the measurement (hPa),sample flow rate (lpm),inlet stack bypass flow (lpm),air temperature of the measurement (°C),ambient temperature measured by the external sensor (°C),aerosol sample conditioner tube jacket temperature (°C),OPC LED temperature (°C),internal box temperature (°C),relative humidity of the measurement (%),span deviation,mass concentration of particles derived from Lorenz-Mie calculation of OPC scattering (μg/m³),mass concentration of particles derived from Lorenz-Mie calculation of OPC scattering (μg/m³),mass concentration of particles derived from Lorenz-Mie calculation of OPC scattering (μg/m³)
DateTimeUTC,F1_M11,P_M11,Q1_M11,Q2_M11,T1_M11,T2_M11,T3_M11,T4_M11,T5_M11,U1_M11,ZSPAN_M11,X0_M11,X2_M11,X1_M11
2023-10-28 09:00:00,SystemResetWarning,0829.4,5.00,000.00,021.6,020.1,000.0,029.9,023.1,12.5,0000.0,0016.08,0005.33,0004.42
2023-10-28 09:01:00,SystemResetWarning,0829.3,4.99,000.00,021.6,020.1,000.0,029.9,023.1,12.4,0000.0,0016.24,0005.33,0004.40
2023-10-28 09:02:00,SystemResetWarning,0829.4,4.99,000.00,021.6,020.1,000.0,029.9,023.1,12.4,0000.0,0016.48,0005.32,0004.39
2023-10-28 09:03:00,SystemResetWarning,0829.3,4.99,000.00,021.5,020.1,000.0,029.9,023.1,12.4,0000.0,0017.35,0005.38,0004.40
2023-10-28 09:04:00,SystemResetWarning,0829.3,5.00,000.00,021.5,020.1,000.0,029.9,023.1,12.4,0000.0,0017.90,0005.36,0004.39
2023-10-28 09:05:00,SystemResetWarning,0829.3,5.01,000.00,021.5,020.1,000.0,029.9,023.1,12.4,0000.0,0017.53,0005.36,0004.38
2023-10-28 09:06:00,SystemResetWarning,0829.4,5.01,000.00,021.5,020.1,000.0,029.9,023.1,12.3,0001.1,0017.31,0005.35,0004.37
2023-10-28 09:07:00,SystemResetWarning,0829.4,5.00,000.00,021.5,020.1,000.0,029.9,023.1,12.3,0002.1,0017.05,0005.35,0004.35
2023-10-28 09:08:00,SystemResetWarning,0829.3,5.00,000.00,021.5,020.1,000.0,029.9,023.1,12.2,0002.1,0017.68,0005.33,0004.32
2023-10-28 09:09:00,SystemResetWarning,0829.3,5.00,000.00,021.5,020.0,000.0,029.9,023.1,12.3,0001.8,0017.24,0005.29,0004.30
2023-10-28 09:10:00,SystemResetWarning,0829.3,5.00,000.00,021.5,020.0,000.0,029.9,023.1,12.2,0001.2,0016.60,0005.25,0004.28
2023-10-28 09:11:00,SystemResetWarning,0829.4,5.00,000.00,021.5,020.0,000.0,029.8,023.1,12.2,0000.0,0015.16,0005.18,0004.25
2023-10-28 09:12:00,SystemResetWarning,0829.5,5.01,000.00,021.5,020.0,000.0,029.8,023.0,12.1,0000.0,0014.51,0005.14,0004.23
2023-10-28 09:13:00,SystemResetWarning,0829.6,5.01,000.00,021.5,020.0,000.0,029.8,023.0,12.1,0000.0,0014.33,0005.15,0004.21
2023-10-28 09:14:00,SystemResetWarning,0829.6,5.00,000.00,021.5,020.0,000.0,029.8,023.1,12.1,0000.0,0013.21,0005.11,0004.20
2023-10-28 09:15:00,SystemResetWarning,0829.6,5.00,000.00,021.5,020.0,000.0,029.8,023.0,12.2,0000.0,0012.25,0005.05,0004.17
2023-10-28 09:16:00,SystemResetWarning,0829.4,5.00,000.00,021.5,020.0,000.0,029.8,023.0,12.2,0000.0,0010.86,0004.99,0004.15
2023-10-28 09:17:00,SystemResetWarning,0829.3,5.00,000.00,021.5,020.0,000.0,029.8,023.0,12.2,0000.0,0009.89,0004.91,0004.13
2023-10-28 09:18:00,SystemResetWarning,0829.3,5.00,000.00,021.5,020.0,000.0,029.8,023.0,12.2,0000.0,0009.49,0004.83,0004.11
2023-10-28 09:19:00,SystemResetWarning,0829.4,5.00,000.00,021.5,020.0,000.0,029.8,023.0,12.2,0000.0,0008.85,0004.78,0004.10
2023-10-28 09:20:00,SystemResetWarning,0829.4,4.99,000.00,021.5,020.0,000.0,029.8,023.0,12.2,0000.0,0008.76,0004.75,0004.10
2023-10-28 09:21:00,SystemResetWarning,0829.4,5.00,000.00,021.5,020.0,000.0,029.8,023.0,12.3,0000.0,0008.85,0004.76,0004.10
2023-10-28 09:22:00,SystemResetWarning,0829.4,4.99,000.00,021.5,020.0,000.0,029.8,023.0,12.3,0000.0,0008.90,0004.81,0004.12
2023-10-28 09:23:00,SystemResetWarning,0829.3,5.00,000.00,021.5,020.0,000.0,029.8,023.0,12.4,0000.0,0008.90,0004.83,0004.13
2023-10-28 09:24:00,SystemResetWarning,0829.3,5.01,000.00,021.5,020.0,000.0,029.8,023.0,12.4,0000.0,0009.30,0004.87,0004.15
2023-10-28 09:25:00,SystemResetWarning,0829.4,5.00,000.00,021.5,020.0,000.0,029.8,023.0,12.4,0000.0,0009.37,0004.87,0004.16
2023-10-28 09:26:00,SystemResetWarning,0829.4,4.99,000.00,021.5,020.0,000.0,029.8,023.0,12.4,0000.0,0009.38,0004.89,0004.18
2023-10-28 09:27:00,SystemResetWarning,0829.3,4.99,000.00,021.4,020.0,000.0,029.8,023.0,12.5,0000.0,0009.46,0004.91,0004.18
2023-10-28 09:28:00,SystemResetWarning,0829.4,4.99,000.00,021.4,020.0,000.0,029.8,023.0,12.5,0000.0,0009.98,0004.92,0004.19
2023-10-28 09:29:00,SystemResetWarning,0829.3,5.01,000.00,021.4,020.0,000.0,029.8,023.0,12.5,0000.0,0011.84,0005.00,0004.20
2023-10-28 09:30:00,SystemResetWarning,0829.3,5.01,000.00,021.4,020.0,000.0,029.8,023.0,12.7,0000.0,0012.08,0005.02,0004.21
2023-10-28 09:31:00,SystemResetWarning,0829.3,5.01,000.00,021.4,020.0,000.0,029.8,023.0,12.8,0000.0,0012.38,0005.06,0004.21
2023-10-28 09:32:00,SystemResetWarning,0829.3,5.00,000.00,021.4,019.9,000.0,029.8,023.0,13.0,0000.0,0013.09,0005.10,0004.21
2023-10-28 09:33:00,SystemResetWarning,0829.4,5.00,000.00,021.4,019.9,000.0,029.8,022.9,13.2,0000.0,0013.39,0005.12,0004.21
2023-10-28 09:34:00,SystemResetWarning,0829.3,5.00,000.00,021.4,019.9,000.0,029.8,023.0,13.2,0000.0,0013.67,0005.12,0004.20
2023-10-28 09:35:00,SystemResetWarning,0829.3,4.99,000.00,021.4,019.9,000.0,029.8,022.9,13.2,0000.0,0013.55,0005.09,0004.21
2023-10-28 09:36:00,SystemResetWarning,0829.3,5.00,000.00,021.4,019.9,000.0,029.8,022.9,13.2,0000.0,0013.42,0005.08,0004.20
2023-10-28 09:37:00,SystemResetWarning,0829.4,5.01,000.00,021.4,019.9,000.0,029.8,022.9,13.2,0000.0,0013.45,0005.07,0004.19
2023-10-28 09:38:00,SystemResetWarning,0829.4,5.00,000.00,021.4,019.9,000.0,029.7,022.9,13.2,0000.0,0014.20,0005.10,0004.18
2023-10-28 09:39:00,SystemResetWarning,0829.4,5.01,000.00,021.3,019.9,000.0,029.7,022.9,13.2,0000.0,0014.38,0005.13,0004.18
2023-10-28 09:40:00,SystemResetWarning,0829.3,5.01,000.00,021.3,019.9,000.0,029.7,022.9,13.1,0000.0,0013.64,0005.14,0004.16
2023-10-28 09:41:00,SystemResetWarning,0829.3,5.00,000.00,021.3,019.9,000.0,029.7,022.8,13.1,0000.0,0013.08,0005.16,0004.15
2023-10-28 09:42:00,SystemResetWarning,0829.3,5.00,000.00,021.3,019.9,000.0,029.7,022.8,13.2,0000.0,0013.57,0005.16,0004.15
2023-10-28 09:43:00,SystemResetWarning,0829.3,5.00,000.00,021.3,019.9,000.0,029.7,022.8,13.2,0000.0,0012.79,0005.11,0004.11
2023-10-28 09:44:00,SystemResetWarning,0829.4,5.00,000.00,021.3,019.8,000.0,029.7,022.8,13.3,0000.0,0012.64,0005.03,0004.09
2023-10-28 09:45:00,SystemResetWarning,0829.4,4.99,000.00,021.3,019.8,000.0,029.7,022.8,13.3,0000.0,0012.89,0005.02,0004.07
2023-10-28 09:46:00,SystemResetWarning,0829.3,4.99,000.00,021.3,019.8,000.0,029.7,022.8,13.5,0000.0,0012.39,0004.97,0004.03
2023-10-28 09:47:00,SystemResetWarning,0829.3,5.00,000.00,021.3,019.8,000.0,029.7,022.8,13.4,0000.0,0012.56,0004.91,0004.00
2023-10-28 09:48:00,SystemResetWarning,0829.4,5.01,000.00,021.3,019.8,000.0,029.7,022.8,13.3,0000.0,0012.89,0004.92,0003.98
2023-10-28 09:49:00,SystemResetWarning,0829.4,5.00,000.00,021.3,019.8,000.0,029.7,022.8,13.3,0000.0,0012.40,0004.86,0003.96
2023-10-28 09:50:00,SystemResetWarning,0829.3,5.01,000.00,021.3,019.8,000.0,029.7,022.8,13.3,0000.0,0012.09,0004.80,0003.93
2023-10-28 09:51:00,SystemResetWarning,0829.3,5.00,000.00,021.3,019.7,000.0,029.6,022.8,13.3,0000.0,0011.49,0004.75,0003.92
2023-10-28 09:52:00,SystemResetWarning,0829.4,5.00,000.00,021.3,019.7,000.0,029.6,022.8,13.3,0000.0,0011.18,0004.65,0003.89
2023-10-28 09:53:00,SystemResetWarning,0829.3,5.00,000.00,021.3,019.7,000.0,029.6,022.8,13.2,0000.0,0010.13,0004.55,0003.87
2023-10-28 09:54:00,SystemResetWarning,0829.2,5.00,000.00,021.3,019.7,000.0,029.6,022.8,13.2,0000.0,0010.11,0004.49,0003.85
2023-10-28 09:55:00,SystemResetWarning,0829.2,5.00,000.00,021.3,019.8,000.0,029.6,022.8,13.3,0000.0,0010.06,0004.46,0003.83
2023-10-28 09:56:00,SystemResetWarning,0829.2,5.00,000.00,021.3,019.8,000.0,029.6,022.8,13.2,0000.0,0009.50,0004.43,0003.80
2023-10-28 09:57:00,SystemResetWarning,0829.1,5.00,000.00,021.3,019.8,000.0,029.6,022.8,13.3,0000.0,0010.61,0004.45,0003.80
2023-10-28 09:58:00,SystemResetWarning,0829.1,5.00,000.00,021.3,019.7,000.0,029.6,022.9,13.3,0000.0,0011.97,0004.49,0003.81
2023-10-28 09:59:00,SystemResetWarning,0829.1,5.01,000.00,021.3,020.1,000.0,029.5,023.1,13.4,0000.0,0012.03,0004.46,0003.82
